Year,Month,Day,Hour,Minute,Value (Times are PST for insolation in W/m^2)
2019,02,23,00,00,0.00
2019,02,23,00,01,0.00
2019,02,23,00,02,0.00
2019,02,23,00,03,0.00
2019,02,23,00,04,0.00
2019,02,23,00,05,0.00
2019,02,23,00,06,0.00
2019,02,23,00,07,0.00
2019,02,23,00,08,0.00
2019,02,23,00,09,0.00
2019,02,23,00,10,0.00
2019,02,23,00,11,0.00
2019,02,23,00,12,0.00
2019,02,23,00,13,0.00
2019,02,23,00,14,0.00
2019,02,23,00,15,0.00
2019,02,23,00,16,0.00
2019,02,23,00,17,0.00
2019,02,23,00,18,0.00
2019,02,23,00,19,0.00
2019,02,23,00,20,0.00
2019,02,23,00,21,0.00
2019,02,23,00,22,0.00
2019,02,23,00,23,0.00
2019,02,23,00,24,0.00
2019,02,23,00,25,0.00
2019,02,23,00,26,0.00
2019,02,23,00,27,0.00
2019,02,23,00,28,0.00
2019,02,23,00,29,0.00
2019,02,23,00,30,0.00
2019,02,23,00,31,0.00
2019,02,23,00,32,0.00
2019,02,23,00,33,0.00
2019,02,23,00,34,0.00
2019,02,23,00,35,0.00
2019,02,23,00,36,0.00
2019,02,23,00,37,0.00
2019,02,23,00,38,0.00
2019,02,23,00,39,0.00
2019,02,23,00,40,0.00
2019,02,23,00,41,0.00
2019,02,23,00,42,0.00
2019,02,23,00,43,0.00
2019,02,23,00,44,0.00
2019,02,23,00,45,0.00
2019,02,23,00,46,0.00
2019,02,23,00,47,0.00
2019,02,23,00,48,0.00
2019,02,23,00,49,0.00
2019,02,23,00,50,0.00
2019,02,23,00,51,0.00
2019,02,23,00,52,0.00
2019,02,23,00,53,0.00
2019,02,23,00,54,0.00
2019,02,23,00,55,0.00
2019,02,23,00,56,0.00
2019,02,23,00,57,0.00
2019,02,23,00,58,0.00
2019,02,23,00,59,0.00
2019,02,23,01,00,0.00
2019,02,23,01,01,0.00
2019,02,23,01,02,0.00
2019,02,23,01,03,0.00
2019,02,23,01,04,0.00
2019,02,23,01,05,0.00
2019,02,23,01,06,0.00
2019,02,23,01,07,0.00
2019,02,23,01,08,0.00
2019,02,23,01,09,0.00
2019,02,23,01,10,0.00
2019,02,23,01,11,0.00
2019,02,23,01,12,0.00
2019,02,23,01,13,0.00
2019,02,23,01,14,0.00
2019,02,23,01,15,0.00
2019,02,23,01,16,0.00
2019,02,23,01,17,0.00
2019,02,23,01,18,0.00
2019,02,23,01,19,0.00
2019,02,23,01,20,0.00
2019,02,23,01,21,0.00
2019,02,23,01,22,0.00
2019,02,23,01,23,0.00
2019,02,23,01,24,0.00
2019,02,23,01,25,0.00
2019,02,23,01,26,0.00
2019,02,23,01,27,0.00
2019,02,23,01,28,0.00
2019,02,23,01,29,0.00
2019,02,23,01,30,0.00
2019,02,23,01,31,0.00
2019,02,23,01,32,0.00
2019,02,23,01,33,0.00
2019,02,23,01,34,0.00
2019,02,23,01,35,0.00
2019,02,23,01,36,0.00
2019,02,23,01,37,0.00
2019,02,23,01,38,0.00
2019,02,23,01,39,0.00
2019,02,23,01,40,0.00
2019,02,23,01,41,0.00
2019,02,23,01,42,0.00
2019,02,23,01,43,0.00
2019,02,23,01,44,0.00
2019,02,23,01,45,0.00
2019,02,23,01,46,0.00
2019,02,23,01,47,0.00
2019,02,23,01,48,0.00
2019,02,23,01,49,0.00
2019,02,23,01,50,0.00
2019,02,23,01,51,0.00
2019,02,23,01,52,0.00
2019,02,23,01,53,0.00
2019,02,23,01,54,0.00
2019,02,23,01,55,0.00
2019,02,23,01,56,0.00
2019,02,23,01,57,0.00
2019,02,23,01,58,0.00
2019,02,23,01,59,0.00
2019,02,23,02,00,0.00
2019,02,23,02,01,0.00
2019,02,23,02,02,0.00
2019,02,23,02,03,0.00
2019,02,23,02,04,0.00
2019,02,23,02,05,0.00
2019,02,23,02,06,0.00
2019,02,23,02,07,0.00
2019,02,23,02,08,0.00
2019,02,23,02,09,0.00
2019,02,23,02,10,0.00
2019,02,23,02,11,0.00
2019,02,23,02,12,0.00
2019,02,23,02,13,0.00
2019,02,23,02,14,0.00
2019,02,23,02,15,0.00
2019,02,23,02,16,0.00
2019,02,23,02,17,0.00
2019,02,23,02,18,0.00
2019,02,23,02,19,0.00
2019,02,23,02,20,0.00
2019,02,23,02,21,0.00
2019,02,23,02,22,0.00
2019,02,23,02,23,0.00
2019,02,23,02,24,0.00
2019,02,23,02,25,0.00
2019,02,23,02,26,0.00
2019,02,23,02,27,0.00
2019,02,23,02,28,0.00
2019,02,23,02,29,0.00
2019,02,23,02,30,0.00
2019,02,23,02,31,0.00
2019,02,23,02,32,0.00
2019,02,23,02,33,0.00
2019,02,23,02,34,0.00
2019,02,23,02,35,0.00
2019,02,23,02,36,0.00
2019,02,23,02,37,0.00
2019,02,23,02,38,0.00
2019,02,23,02,39,0.00
2019,02,23,02,40,0.00
2019,02,23,02,41,0.00
2019,02,23,02,42,0.00
2019,02,23,02,43,0.00
2019,02,23,02,44,0.00
2019,02,23,02,45,0.00
2019,02,23,02,46,0.00
2019,02,23,02,47,0.00
2019,02,23,02,48,0.00
2019,02,23,02,49,0.00
2019,02,23,02,50,0.00
2019,02,23,02,51,0.00
2019,02,23,02,52,0.00
2019,02,23,02,53,0.00
2019,02,23,02,54,0.00
2019,02,23,02,55,0.00
2019,02,23,02,56,0.00
2019,02,23,02,57,0.00
2019,02,23,02,58,0.00
2019,02,23,02,59,0.00
2019,02,23,03,00,0.00
2019,02,23,03,01,0.00
2019,02,23,03,02,0.00
2019,02,23,03,03,0.00
2019,02,23,03,04,0.00
2019,02,23,03,05,0.00
2019,02,23,03,06,0.00
2019,02,23,03,07,0.00
2019,02,23,03,08,0.00
2019,02,23,03,09,0.00
2019,02,23,03,10,0.00
2019,02,23,03,11,0.00
2019,02,23,03,12,0.00
2019,02,23,03,13,0.00
2019,02,23,03,14,0.00
2019,02,23,03,15,0.00
2019,02,23,03,16,0.00
2019,02,23,03,17,0.00
2019,02,23,03,18,0.00
2019,02,23,03,19,0.00
2019,02,23,03,20,0.00
2019,02,23,03,21,0.00
2019,02,23,03,22,0.00
2019,02,23,03,23,0.00
2019,02,23,03,24,0.00
2019,02,23,03,25,0.00
2019,02,23,03,26,0.00
2019,02,23,03,27,0.00
2019,02,23,03,28,0.00
2019,02,23,03,29,0.00
2019,02,23,03,30,0.00
2019,02,23,03,31,0.00
2019,02,23,03,32,0.00
2019,02,23,03,33,0.00
2019,02,23,03,34,0.00
2019,02,23,03,35,0.00
2019,02,23,03,36,0.00
2019,02,23,03,37,0.00
2019,02,23,03,38,0.00
2019,02,23,03,39,0.00
2019,02,23,03,40,0.00
2019,02,23,03,41,0.00
2019,02,23,03,42,0.00
2019,02,23,03,43,0.00
2019,02,23,03,44,0.00
2019,02,23,03,45,0.00
2019,02,23,03,46,0.00
2019,02,23,03,47,0.00
2019,02,23,03,48,0.00
2019,02,23,03,49,0.00
2019,02,23,03,50,0.00
2019,02,23,03,51,0.00
2019,02,23,03,52,0.00
2019,02,23,03,53,0.00
2019,02,23,03,54,0.00
2019,02,23,03,55,0.00
2019,02,23,03,56,0.00
2019,02,23,03,57,0.00
2019,02,23,03,58,0.00
2019,02,23,03,59,0.00
2019,02,23,04,00,0.00
2019,02,23,04,01,0.00
2019,02,23,04,02,0.00
2019,02,23,04,03,0.00
2019,02,23,04,04,0.00
2019,02,23,04,05,0.00
2019,02,23,04,06,0.00
2019,02,23,04,07,0.00
2019,02,23,04,08,0.00
2019,02,23,04,09,0.00
2019,02,23,04,10,0.00
2019,02,23,04,11,0.00
2019,02,23,04,12,0.00
2019,02,23,04,13,0.00
2019,02,23,04,14,0.00
2019,02,23,04,15,0.00
2019,02,23,04,16,0.00
2019,02,23,04,17,0.00
2019,02,23,04,18,0.00
2019,02,23,04,19,0.00
2019,02,23,04,20,0.00
2019,02,23,04,21,0.00
2019,02,23,04,22,0.00
2019,02,23,04,23,0.00
2019,02,23,04,24,0.00
2019,02,23,04,25,0.00
2019,02,23,04,26,0.00
2019,02,23,04,27,0.00
2019,02,23,04,28,0.00
2019,02,23,04,29,0.00
2019,02,23,04,30,0.00
2019,02,23,04,31,0.00
2019,02,23,04,32,0.00
2019,02,23,04,33,0.00
2019,02,23,04,34,0.00
2019,02,23,04,35,0.00
2019,02,23,04,36,0.00
2019,02,23,04,37,0.00
2019,02,23,04,38,0.00
2019,02,23,04,39,0.00
2019,02,23,04,40,0.00
2019,02,23,04,41,0.00
2019,02,23,04,42,0.00
2019,02,23,04,43,0.00
2019,02,23,04,44,0.00
2019,02,23,04,45,0.00
2019,02,23,04,46,0.00
2019,02,23,04,47,0.00
2019,02,23,04,48,0.00
2019,02,23,04,49,0.00
2019,02,23,04,50,0.00
2019,02,23,04,51,0.00
2019,02,23,04,52,0.00
2019,02,23,04,53,0.00
2019,02,23,04,54,0.00
2019,02,23,04,55,0.00
2019,02,23,04,56,0.00
2019,02,23,04,57,0.00
2019,02,23,04,58,0.00
2019,02,23,04,59,0.00
2019,02,23,05,00,0.00
2019,02,23,05,01,0.00
2019,02,23,05,02,0.00
2019,02,23,05,03,0.00
2019,02,23,05,04,0.00
2019,02,23,05,05,0.00
2019,02,23,05,06,0.00
2019,02,23,05,07,0.00
2019,02,23,05,08,0.00
2019,02,23,05,09,0.00
2019,02,23,05,10,0.00
2019,02,23,05,11,0.00
2019,02,23,05,12,0.00
2019,02,23,05,13,0.00
2019,02,23,05,14,0.00
2019,02,23,05,15,0.00
2019,02,23,05,16,0.00
2019,02,23,05,17,0.00
2019,02,23,05,18,0.00
2019,02,23,05,19,0.00
2019,02,23,05,20,0.00
2019,02,23,05,21,0.00
2019,02,23,05,22,0.00
2019,02,23,05,23,0.00
2019,02,23,05,24,0.00
2019,02,23,05,25,0.00
2019,02,23,05,26,0.00
2019,02,23,05,27,0.00
2019,02,23,05,28,0.00
2019,02,23,05,29,0.00
2019,02,23,05,30,0.00
2019,02,23,05,31,0.00
2019,02,23,05,32,0.00
2019,02,23,05,33,0.00
2019,02,23,05,34,0.00
2019,02,23,05,35,0.00
2019,02,23,05,36,0.00
2019,02,23,05,37,0.00
2019,02,23,05,38,0.00
2019,02,23,05,39,0.00
2019,02,23,05,40,0.00
2019,02,23,05,41,0.00
2019,02,23,05,42,0.00
2019,02,23,05,43,0.00
2019,02,23,05,44,0.00
2019,02,23,05,45,0.00
2019,02,23,05,46,0.00
2019,02,23,05,47,0.00
2019,02,23,05,48,0.00
2019,02,23,05,49,0.00
2019,02,23,05,50,0.00
2019,02,23,05,51,0.00
2019,02,23,05,52,0.00
2019,02,23,05,53,0.00
2019,02,23,05,54,0.00
2019,02,23,05,55,0.00
2019,02,23,05,56,0.00
2019,02,23,05,57,0.00
2019,02,23,05,58,0.00
2019,02,23,05,59,0.00
2019,02,23,06,00,0.00
2019,02,23,06,01,0.00
2019,02,23,06,02,0.00
2019,02,23,06,03,0.00
2019,02,23,06,04,0.00
2019,02,23,06,05,0.00
2019,02,23,06,06,0.00
2019,02,23,06,07,0.00
2019,02,23,06,08,0.00
2019,02,23,06,09,0.00
2019,02,23,06,10,0.00
2019,02,23,06,11,0.00
2019,02,23,06,12,0.00
2019,02,23,06,13,0.00
2019,02,23,06,14,0.00
2019,02,23,06,15,0.00
2019,02,23,06,16,0.00
2019,02,23,06,17,0.00
2019,02,23,06,18,0.00
2019,02,23,06,19,0.00
2019,02,23,06,20,0.00
2019,02,23,06,21,0.00
2019,02,23,06,22,0.00
2019,02,23,06,23,0.00
2019,02,23,06,24,0.00
2019,02,23,06,25,0.00
2019,02,23,06,26,0.00
2019,02,23,06,27,0.00
2019,02,23,06,28,0.00
2019,02,23,06,29,0.00
2019,02,23,06,30,0.00
2019,02,23,06,31,0.00
2019,02,23,06,32,0.00
2019,02,23,06,33,0.00
2019,02,23,06,34,0.00
2019,02,23,06,35,0.00
2019,02,23,06,36,0.00
2019,02,23,06,37,0.00
2019,02,23,06,38,0.00
2019,02,23,06,39,0.00
2019,02,23,06,40,0.00
2019,02,23,06,41,0.00
2019,02,23,06,42,0.00
2019,02,23,06,43,0.00
2019,02,23,06,44,0.00
2019,02,23,06,45,0.00
2019,02,23,06,46,0.00
2019,02,23,06,47,0.00
2019,02,23,06,48,0.00
2019,02,23,06,49,0.00
2019,02,23,06,50,0.00
2019,02,23,06,51,0.00
2019,02,23,06,52,0.00
2019,02,23,06,53,0.00
2019,02,23,06,54,0.00
2019,02,23,06,55,0.00
2019,02,23,06,56,0.00
2019,02,23,06,57,0.00
2019,02,23,06,58,0.00
2019,02,23,06,59,0.00
2019,02,23,07,00,0.00
2019,02,23,07,01,0.00
2019,02,23,07,02,0.00
2019,02,23,07,03,0.00
2019,02,23,07,04,0.00
2019,02,23,07,05,0.00
2019,02,23,07,06,0.00
2019,02,23,07,07,0.00
2019,02,23,07,08,0.00
2019,02,23,07,09,0.00
2019,02,23,07,10,0.00
2019,02,23,07,11,0.00
2019,02,23,07,12,0.00
2019,02,23,07,13,0.00
2019,02,23,07,14,0.00
2019,02,23,07,15,0.00
2019,02,23,07,16,0.00
2019,02,23,07,17,0.00
2019,02,23,07,18,0.00
2019,02,23,07,19,0.00
2019,02,23,07,20,0.00
2019,02,23,07,21,0.00
2019,02,23,07,22,0.00
2019,02,23,07,23,0.00
2019,02,23,07,24,0.00
2019,02,23,07,25,0.00
2019,02,23,07,26,0.00
2019,02,23,07,27,0.00
2019,02,23,07,28,0.00
2019,02,23,07,29,0.00
2019,02,23,07,30,1.50
2019,02,23,07,31,5.00
2019,02,23,07,32,5.00
2019,02,23,07,33,5.00
2019,02,23,07,34,5.00
2019,02,23,07,35,5.10
2019,02,23,07,36,7.00
2019,02,23,07,37,7.00
2019,02,23,07,38,7.00
2019,02,23,07,39,7.00
2019,02,23,07,40,8.40
2019,02,23,07,41,9.00
2019,02,23,07,42,9.10
2019,02,23,07,43,11.00
2019,02,23,07,44,11.00
2019,02,23,07,45,11.00
2019,02,23,07,46,11.60
2019,02,23,07,47,12.00
2019,02,23,07,48,12.00
2019,02,23,07,49,12.10
2019,02,23,07,50,14.00
2019,02,23,07,51,14.00
2019,02,23,07,52,14.00
2019,02,23,07,53,14.00
2019,02,23,07,54,14.00
2019,02,23,07,55,15.60
2019,02,23,07,56,16.00
2019,02,23,07,57,16.00
2019,02,23,07,58,16.00
2019,02,23,07,59,16.90
2019,02,23,08,00,18.00
2019,02,23,08,01,18.00
2019,02,23,08,02,18.00
2019,02,23,08,03,18.10
2019,02,23,08,04,19.00
2019,02,23,08,05,19.00
2019,02,23,08,06,19.00
2019,02,23,08,07,20.00
2019,02,23,08,08,21.00
2019,02,23,08,09,21.00
2019,02,23,08,10,22.90
2019,02,23,08,11,23.30
2019,02,23,08,12,25.30
2019,02,23,08,13,26.00
2019,02,23,08,14,27.10
2019,02,23,08,15,29.40
2019,02,23,08,16,31.60
2019,02,23,08,17,33.00
2019,02,23,08,18,35.70
2019,02,23,08,19,39.30
2019,02,23,08,20,40.80
2019,02,23,08,21,42.00
2019,02,23,08,22,45.30
2019,02,23,08,23,48.60
2019,02,23,08,24,52.80
2019,02,23,08,25,54.40
2019,02,23,08,26,57.20
2019,02,23,08,27,60.00
2019,02,23,08,28,61.70
2019,02,23,08,29,64.30
2019,02,23,08,30,68.20
2019,02,23,08,31,70.00
2019,02,23,08,32,72.40
2019,02,23,08,33,74.60
2019,02,23,08,34,76.40
2019,02,23,08,35,77.00
2019,02,23,08,36,78.30
2019,02,23,08,37,80.60
2019,02,23,08,38,81.00
2019,02,23,08,39,81.60
2019,02,23,08,40,84.00
2019,02,23,08,41,83.60
2019,02,23,08,42,81.90
2019,02,23,08,43,81.00
2019,02,23,08,44,79.40
2019,02,23,08,45,76.10
2019,02,23,08,46,73.60
2019,02,23,08,47,72.00
2019,02,23,08,48,72.80
2019,02,23,08,49,75.00
2019,02,23,08,50,76.70
2019,02,23,08,51,78.60
2019,02,23,08,52,80.90
2019,02,23,08,53,81.00
2019,02,23,08,54,81.00
2019,02,23,08,55,81.80
2019,02,23,08,56,83.50
2019,02,23,08,57,84.00
2019,02,23,08,58,84.00
2019,02,23,08,59,83.00
2019,02,23,09,00,81.00
2019,02,23,09,01,81.00
2019,02,23,09,02,80.20
2019,02,23,09,03,80.00
2019,02,23,09,04,81.00
2019,02,23,09,05,82.60
2019,02,23,09,06,83.50
2019,02,23,09,07,98.30
2019,02,23,09,08,104.30
2019,02,23,09,09,105.00
2019,02,23,09,10,101.40
2019,02,23,09,11,97.30
2019,02,23,09,12,103.50
2019,02,23,09,13,97.60
2019,02,23,09,14,97.00
2019,02,23,09,15,97.00
2019,02,23,09,16,97.00
2019,02,23,09,17,97.50
2019,02,23,09,18,98.00
2019,02,23,09,19,99.60
2019,02,23,09,20,100.00
2019,02,23,09,21,100.00
2019,02,23,09,22,100.00
2019,02,23,09,23,100.00
2019,02,23,09,24,100.00
2019,02,23,09,25,101.30
2019,02,23,09,26,102.00
2019,02,23,09,27,103.90
2019,02,23,09,28,104.00
2019,02,23,09,29,104.30
2019,02,23,09,30,105.00
2019,02,23,09,31,105.00
2019,02,23,09,32,105.00
2019,02,23,09,33,106.60
2019,02,23,09,34,108.90
2019,02,23,09,35,109.70
2019,02,23,09,36,113.90
2019,02,23,09,37,116.00
2019,02,23,09,38,121.00
2019,02,23,09,39,127.00
2019,02,23,09,40,131.30
2019,02,23,09,41,132.20
2019,02,23,09,42,137.00
2019,02,23,09,43,137.60
2019,02,23,09,44,139.00
2019,02,23,09,45,139.00
2019,02,23,09,46,140.40
2019,02,23,09,47,141.80
2019,02,23,09,48,142.00
2019,02,23,09,49,142.30
2019,02,23,09,50,144.00
2019,02,23,09,51,144.80
2019,02,23,09,52,146.00
2019,02,23,09,53,147.30
2019,02,23,09,54,146.40
2019,02,23,09,55,144.00
2019,02,23,09,56,142.00
2019,02,23,09,57,142.00
2019,02,23,09,58,142.00
2019,02,23,09,59,140.30
2019,02,23,10,00,131.70
2019,02,23,10,01,125.60
2019,02,23,10,02,129.80
2019,02,23,10,03,134.10
2019,02,23,10,04,127.90
2019,02,23,10,05,120.00
2019,02,23,10,06,115.00
2019,02,23,10,07,118.70
2019,02,23,10,08,121.00
2019,02,23,10,09,120.40
2019,02,23,10,10,104.00
2019,02,23,10,11,97.70
2019,02,23,10,12,96.10
2019,02,23,10,13,96.10
2019,02,23,10,14,97.70
2019,02,23,10,15,91.50
2019,02,23,10,16,88.00
2019,02,23,10,17,83.00
2019,02,23,10,18,82.40
2019,02,23,10,19,78.10
2019,02,23,10,20,72.90
2019,02,23,10,21,70.60
2019,02,23,10,22,67.60
2019,02,23,10,23,60.30
2019,02,23,10,24,54.00
2019,02,23,10,25,51.90
2019,02,23,10,26,46.60
2019,02,23,10,27,46.00
2019,02,23,10,28,46.70
2019,02,23,10,29,50.20
2019,02,23,10,30,49.10
2019,02,23,10,31,46.60
2019,02,23,10,32,43.40
2019,02,23,10,33,41.20
2019,02,23,10,34,41.10
2019,02,23,10,35,42.00
2019,02,23,10,36,45.30
2019,02,23,10,37,46.90
2019,02,23,10,38,45.70
2019,02,23,10,39,44.00
2019,02,23,10,40,44.90
2019,02,23,10,41,44.90
2019,02,23,10,42,42.60
2019,02,23,10,43,39.60
2019,02,23,10,44,39.00
2019,02,23,10,45,39.00
2019,02,23,10,46,40.50
2019,02,23,10,47,48.20
2019,02,23,10,48,58.70
2019,02,23,10,49,63.00
2019,02,23,10,50,67.70
2019,02,23,10,51,78.40
2019,02,23,10,52,82.10
2019,02,23,10,53,77.00
2019,02,23,10,54,77.00
2019,02,23,10,55,80.60
2019,02,23,10,56,88.70
2019,02,23,10,57,91.00
2019,02,23,10,58,95.20
2019,02,23,10,59,102.80
2019,02,23,11,00,107.00
2019,02,23,11,01,107.90
2019,02,23,11,02,119.00
2019,02,23,11,03,142.50
2019,02,23,11,04,173.20
2019,02,23,11,05,195.40
2019,02,23,11,06,184.50
2019,02,23,11,07,147.70
2019,02,23,11,08,135.00
2019,02,23,11,09,135.00
2019,02,23,11,10,128.00
2019,02,23,11,11,110.50
2019,02,23,11,12,90.80
2019,02,23,11,13,77.00
2019,02,23,11,14,78.20
2019,02,23,11,15,82.30
2019,02,23,11,16,87.30
2019,02,23,11,17,88.60
2019,02,23,11,18,88.00
2019,02,23,11,19,94.50
2019,02,23,11,20,100.40
2019,02,23,11,21,135.30
2019,02,23,11,22,148.00
2019,02,23,11,23,148.00
2019,02,23,11,24,155.00
2019,02,23,11,25,165.30
2019,02,23,11,26,155.30
2019,02,23,11,27,134.70
2019,02,23,11,28,111.90
2019,02,23,11,29,98.90
2019,02,23,11,30,96.70
2019,02,23,11,31,104.30
2019,02,23,11,32,108.60
2019,02,23,11,33,110.90
2019,02,23,11,34,111.30
2019,02,23,11,35,108.60
2019,02,23,11,36,97.60
2019,02,23,11,37,97.60
2019,02,23,11,38,102.00
2019,02,23,11,39,106.40
2019,02,23,11,40,105.20
2019,02,23,11,41,106.40
2019,02,23,11,42,102.20
2019,02,23,11,43,94.40
2019,02,23,11,44,85.00
2019,02,23,11,45,70.30
2019,02,23,11,46,53.70
2019,02,23,11,47,46.40
2019,02,23,11,48,47.00
2019,02,23,11,49,49.10
2019,02,23,11,50,52.80
2019,02,23,11,51,51.00
2019,02,23,11,52,55.70
2019,02,23,11,53,61.90
2019,02,23,11,54,66.90
2019,02,23,11,55,72.60
2019,02,23,11,56,79.00
2019,02,23,11,57,88.00
2019,02,23,11,58,96.70
2019,02,23,11,59,111.30
2019,02,23,12,00,125.30
2019,02,23,12,01,138.40
2019,02,23,12,02,149.90
2019,02,23,12,03,174.70
2019,02,23,12,04,193.00
2019,02,23,12,05,219.70
2019,02,23,12,06,239.70
2019,02,23,12,07,239.00
2019,02,23,12,08,236.80
2019,02,23,12,09,228.30
2019,02,23,12,10,234.00
2019,02,23,12,11,229.50
2019,02,23,12,12,216.30
2019,02,23,12,13,202.70
2019,02,23,12,14,195.90
2019,02,23,12,15,197.90
2019,02,23,12,16,282.30
2019,02,23,12,17,338.60
2019,02,23,12,18,361.00
2019,02,23,12,19,365.70
2019,02,23,12,20,369.70
2019,02,23,12,21,375.10
2019,02,23,12,22,383.40
2019,02,23,12,23,401.40
2019,02,23,12,24,417.00
2019,02,23,12,25,418.10
2019,02,23,12,26,414.90
2019,02,23,12,27,346.40
2019,02,23,12,28,327.00
2019,02,23,12,29,333.90
2019,02,23,12,30,496.60
2019,02,23,12,31,429.00
2019,02,23,12,32,429.00
2019,02,23,12,33,381.60
2019,02,23,12,34,341.00
2019,02,23,12,35,358.90
2019,02,23,12,36,387.90
2019,02,23,12,37,378.40
2019,02,23,12,38,327.70
2019,02,23,12,39,292.90
2019,02,23,12,40,278.80
2019,02,23,12,41,286.30
2019,02,23,12,42,285.60
2019,02,23,12,43,267.60
2019,02,23,12,44,256.30
2019,02,23,12,45,253.60
2019,02,23,12,46,258.10
2019,02,23,12,47,281.90
2019,02,23,12,48,349.00
2019,02,23,12,49,371.60
2019,02,23,12,50,290.00
2019,02,23,12,51,342.60
2019,02,23,12,52,392.00
2019,02,23,12,53,412.90
2019,02,23,12,54,439.00
2019,02,23,12,55,609.00
2019,02,23,12,56,771.40
2019,02,23,12,57,792.60
2019,02,23,12,58,791.00
2019,02,23,12,59,791.00
2019,02,23,13,00,569.20
2019,02,23,13,01,302.20
2019,02,23,13,02,325.00
2019,02,23,13,03,319.00
2019,02,23,13,04,295.90
2019,02,23,13,05,267.50
2019,02,23,13,06,226.40
2019,02,23,13,07,221.00
2019,02,23,13,08,224.00
2019,02,23,13,09,218.30
2019,02,23,13,10,219.10
2019,02,23,13,11,221.70
2019,02,23,13,12,234.00
2019,02,23,13,13,238.30
2019,02,23,13,14,214.30
2019,02,23,13,15,194.80
2019,02,23,13,16,192.30
2019,02,23,13,17,194.40
2019,02,23,13,18,202.60
2019,02,23,13,19,235.70
2019,02,23,13,20,254.30
2019,02,23,13,21,246.40
2019,02,23,13,22,283.40
2019,02,23,13,23,318.70
2019,02,23,13,24,306.60
2019,02,23,13,25,279.80
2019,02,23,13,26,247.90
2019,02,23,13,27,243.20
2019,02,23,13,28,277.20
2019,02,23,13,29,298.90
2019,02,23,13,30,281.30
2019,02,23,13,31,277.50
2019,02,23,13,32,304.60
2019,02,23,13,33,320.40
2019,02,23,13,34,305.40
2019,02,23,13,35,301.50
2019,02,23,13,36,295.20
2019,02,23,13,37,261.70
2019,02,23,13,38,226.40
2019,02,23,13,39,196.90
2019,02,23,13,40,197.60
2019,02,23,13,41,215.50
2019,02,23,13,42,230.00
2019,02,23,13,43,221.10
2019,02,23,13,44,203.60
2019,02,23,13,45,188.90
2019,02,23,13,46,186.60
2019,02,23,13,47,202.00
2019,02,23,13,48,202.00
2019,02,23,13,49,203.80
2019,02,23,13,50,187.10
2019,02,23,13,51,163.70
2019,02,23,13,52,153.00
2019,02,23,13,53,144.00
2019,02,23,13,54,199.80
2019,02,23,13,55,233.40
2019,02,23,13,56,262.10
2019,02,23,13,57,331.60
2019,02,23,13,58,303.30
2019,02,23,13,59,239.40
2019,02,23,14,00,200.80
2019,02,23,14,01,183.80
2019,02,23,14,02,172.50
2019,02,23,14,03,168.20
2019,02,23,14,04,167.00
2019,02,23,14,05,185.70
2019,02,23,14,06,195.00
2019,02,23,14,07,195.00
2019,02,23,14,08,194.60
2019,02,23,14,09,199.20
2019,02,23,14,10,206.50
2019,02,23,14,11,198.70
2019,02,23,14,12,171.90
2019,02,23,14,13,154.30
2019,02,23,14,14,147.80
2019,02,23,14,15,128.10
2019,02,23,14,16,106.70
2019,02,23,14,17,91.30
2019,02,23,14,18,83.00
2019,02,23,14,19,81.70
2019,02,23,14,20,76.90
2019,02,23,14,21,72.80
2019,02,23,14,22,80.10
2019,02,23,14,23,86.60
2019,02,23,14,24,92.00
2019,02,23,14,25,99.70
2019,02,23,14,26,106.70
2019,02,23,14,27,112.10
2019,02,23,14,28,116.10
2019,02,23,14,29,123.20
2019,02,23,14,30,143.30
2019,02,23,14,31,163.00
2019,02,23,14,32,236.20
2019,02,23,14,33,299.00
2019,02,23,14,34,182.30
2019,02,23,14,35,146.20
2019,02,23,14,36,144.30
2019,02,23,14,37,137.00
2019,02,23,14,38,161.50
2019,02,23,14,39,174.40
2019,02,23,14,40,122.00
2019,02,23,14,41,98.60
2019,02,23,14,42,91.10
2019,02,23,14,43,86.00
2019,02,23,14,44,86.00
2019,02,23,14,45,86.90
2019,02,23,14,46,86.90
2019,02,23,14,47,84.70
2019,02,23,14,48,83.20
2019,02,23,14,49,79.40
2019,02,23,14,50,75.80
2019,02,23,14,51,69.00
2019,02,23,14,52,69.00
2019,02,23,14,53,67.90
2019,02,23,14,54,68.30
2019,02,23,14,55,69.80
2019,02,23,14,56,69.40
2019,02,23,14,57,77.70
2019,02,23,14,58,81.00
2019,02,23,14,59,76.10
2019,02,23,15,00,73.30
2019,02,23,15,01,76.70
2019,02,23,15,02,76.20
2019,02,23,15,03,76.20
2019,02,23,15,04,81.40
2019,02,23,15,05,84.50
2019,02,23,15,06,90.20
2019,02,23,15,07,95.20
2019,02,23,15,08,97.00
2019,02,23,15,09,86.90
2019,02,23,15,10,82.30
2019,02,23,15,11,96.40
2019,02,23,15,12,98.70
2019,02,23,15,13,78.90
2019,02,23,15,14,70.00
2019,02,23,15,15,77.30
2019,02,23,15,16,82.60
2019,02,23,15,17,83.60
2019,02,23,15,18,100.00
2019,02,23,15,19,101.50
2019,02,23,15,20,105.00
2019,02,23,15,21,109.40
2019,02,23,15,22,113.70
2019,02,23,15,23,115.60
2019,02,23,15,24,113.10
2019,02,23,15,25,107.70
2019,02,23,15,26,102.00
2019,02,23,15,27,104.90
2019,02,23,15,28,107.90
2019,02,23,15,29,108.30
2019,02,23,15,30,105.10
2019,02,23,15,31,92.00
2019,02,23,15,32,90.40
2019,02,23,15,33,86.80
2019,02,23,15,34,84.90
2019,02,23,15,35,88.70
2019,02,23,15,36,92.30
2019,02,23,15,37,93.00
2019,02,23,15,38,92.90
2019,02,23,15,39,89.70
2019,02,23,15,40,86.80
2019,02,23,15,41,83.60
2019,02,23,15,42,80.90
2019,02,23,15,43,77.70
2019,02,23,15,44,76.20
2019,02,23,15,45,72.70
2019,02,23,15,46,79.00
2019,02,23,15,47,79.00
2019,02,23,15,48,79.00
2019,02,23,15,49,80.10
2019,02,23,15,50,81.00
2019,02,23,15,51,81.00
2019,02,23,15,52,82.90
2019,02,23,15,53,84.00
2019,02,23,15,54,81.90
2019,02,23,15,55,71.90
2019,02,23,15,56,67.20
2019,02,23,15,57,69.00
2019,02,23,15,58,67.40
2019,02,23,15,59,63.30
2019,02,23,16,00,64.30
2019,02,23,16,01,70.00
2019,02,23,16,02,71.80
2019,02,23,16,03,75.60
2019,02,23,16,04,83.00
2019,02,23,16,05,90.10
2019,02,23,16,06,96.70
2019,02,23,16,07,101.70
2019,02,23,16,08,110.50
2019,02,23,16,09,115.80
2019,02,23,16,10,119.10
2019,02,23,16,11,120.70
2019,02,23,16,12,121.00
2019,02,23,16,13,122.90
2019,02,23,16,14,122.40
2019,02,23,16,15,118.80
2019,02,23,16,16,116.00
2019,02,23,16,17,117.10
2019,02,23,16,18,116.70
2019,02,23,16,19,116.00
2019,02,23,16,20,112.60
2019,02,23,16,21,103.90
2019,02,23,16,22,97.10
2019,02,23,16,23,94.10
2019,02,23,16,24,91.40
2019,02,23,16,25,90.00
2019,02,23,16,26,84.60
2019,02,23,16,27,83.00
2019,02,23,16,28,83.80
2019,02,23,16,29,82.40
2019,02,23,16,30,81.00
2019,02,23,16,31,81.00
2019,02,23,16,32,81.00
2019,02,23,16,33,73.70
2019,02,23,16,34,69.30
2019,02,23,16,35,69.40
2019,02,23,16,36,66.40
2019,02,23,16,37,64.10
2019,02,23,16,38,62.50
2019,02,23,16,39,62.00
2019,02,23,16,40,62.80
2019,02,23,16,41,64.90
2019,02,23,16,42,65.40
2019,02,23,16,43,67.60
2019,02,23,16,44,69.00
2019,02,23,16,45,69.00
2019,02,23,16,46,69.00
2019,02,23,16,47,69.80
2019,02,23,16,48,70.00
2019,02,23,16,49,70.40
2019,02,23,16,50,72.00
2019,02,23,16,51,72.00
2019,02,23,16,52,70.90
2019,02,23,16,53,70.00
2019,02,23,16,54,70.00
2019,02,23,16,55,70.00
2019,02,23,16,56,69.80
2019,02,23,16,57,68.40
2019,02,23,16,58,66.20
2019,02,23,16,59,63.30
2019,02,23,17,00,60.70
2019,02,23,17,01,58.40
2019,02,23,17,02,55.90
2019,02,23,17,03,51.90
2019,02,23,17,04,43.90
2019,02,23,17,05,37.20
2019,02,23,17,06,32.30
2019,02,23,17,07,26.70
2019,02,23,17,08,21.90
2019,02,23,17,09,18.10
2019,02,23,17,10,15.60
2019,02,23,17,11,14.00
2019,02,23,17,12,13.20
2019,02,23,17,13,12.00
2019,02,23,17,14,12.00
2019,02,23,17,15,12.00
2019,02,23,17,16,12.00
2019,02,23,17,17,12.00
2019,02,23,17,18,12.00
2019,02,23,17,19,12.00
2019,02,23,17,20,11.50
2019,02,23,17,21,11.00
2019,02,23,17,22,9.40
2019,02,23,17,23,8.90
2019,02,23,17,24,7.00
2019,02,23,17,25,7.00
2019,02,23,17,26,6.20
2019,02,23,17,27,5.00
2019,02,23,17,28,5.00